www.pogodaiklimat.ru

Погода и климат >> Архив погоды >> Россия >> Новгородская область >> Валдай


ПОГОДА в Валдае

  • Прогноз погоды в Валдае
  • Монитор погоды в Валдае
  • Климат города

АРХИВ ПОГОДЫ в Валдае

Время (UTC), дата Ветер
(напр.,м/с)
 
Видим.   Явления Облачность Т
(С)
Тd
(С)
f
(%)
Тe
(С)
Тes
(С)
Комфортность P
(гПа)
Po
(гПа)
Тmin
(С)
Tmax
(С)
R
(мм)
R24
(мм)
S
(см)
15 13.08 Ю 1 20 км {ливн. осадки} 8/3 600 м
[Cu Sc Ci sp]
+17.5 +11.7 69 +19 +20 1007.8 984.4 0.8
18 13.08 Ю 1 20 км {ливн. осадки} 3/3 600 м
[Cb cap Ci fib]
+13.9 +11.7 87 +14 +14 1009.3 985.6 0.8
21 13.08 Ю 2 20 км ясно +13.2 +11.3 88 +12 +12 1010.2 986.4
00 14.08 Ю 1 20 км ясно +11.8 +10.4 91 +12 +12 1011.2 987.3
03 14.08 ЮЗ 2 20 км ясно +11.1 +9.8 92 +10 +10 1012.4 988.4 +10.9
06 14.08 ЮЗ 1 20 км 1/1 1000 м
[Cu hum]
+15.4 +10.9 75 +16 +21 1013.3 989.7 +10.9
09 14.08 Ю 2 20 км 6/6 600 м
[Cu hum]
+18.1 +8.8 55 +19 +23 1013.8 990.4
12 14.08 ЮЗ 1 20 км 9/5 600 м
[Cu med, cong Ci fib]
+19.5 +9.4 52 +22 +26 комфорт 1013.7 990.3
15 14.08 З 1 20 км 9/5 600 м
[Sc diur, vesp Ci fib]
+19.9 +8.8 49 +22 +23 комфорт 1013.2 989.8
18 14.08 штиль 0 20 км 6/0
[Ci fib]
+13.9 +10.7 81 +14 +14 1013.6 989.8 +20.9
21 14.08 штиль 0 20 км 4/0
[Ac trans Ci fib]
+12.2 +11.2 94 +12 +12 1013.7 989.7
00 15.08 СВ 1 20 км 9/8 600 м
[Cb cap Ac und]
+14.2 +10.9 81 +15 +15 1012.3 988.5
03 15.08 СВ 1 н/о слабый ливневой дождь 10/10 600 м
[Cb cap]
+13.4 +11.7 89 +14 +14 1011.1 987.3 +11.8 2
06 15.08 СВ 2 8000 м слабый ливневой дождь 10/10 300 м
[Cb cap]
+13.8 +12.9 94 +13 +13 1008.5 984.8 +11.8 13
09 15.08 В 2 20 км в посл. час ливневой дождь 10/10 300 м
[Cb cap]
+14.6 +13.5 93 +14 +14 1008.0 984.4
12 15.08 В 1 8000 м слабый ливневой дождь 10/10 450 м
[Cb cap]
+15.7 +14.6 93 +16 +16 1007.1 983.7
15 15.08 С 1 20 км в посл. час ливневой дождь 9/9 300 м
[Cb cap]
+16.2 +15.2 94 +17 +17 1007.7 984.2 13
18 15.08 С 2 20 км в посл. час морось {ливн. осадки} 10/10 210 м
[St]
+14.7 +13.7 94 +14 +14 1009.9 986.3 +17.1 2
21 15.08 СЗ 2 20 км 10/10 150 м
[St]
+13.6 +12.6 94 +13 +13 1012.0 988.2
00 16.08 СЗ 2 20 км 10/10 270 м
[St]
+13.2 +11.8 91 +12 +12 1013.9 990.0
03 16.08 С 2 20 км 9/8 600 м
[Sc Ci sp]
+12.6 +11.2 91 +12 +12 1015.9 991.9 +12.5
06 16.08 В 1 20 км 9/9 600 м
[Cb cap]
+14.8 +12.1 84 +15 +16 1017.3 993.5 +12.4
09 16.08 В 1 20 км 4/3 600 м
[Cu med, cong Ci fib]
+18.6 +11.7 64 +20 +29 1018.8 995.2
12 16.08 С 1 20 км 4/4 600 м
[Cu med, cong Ci fib]
+20.7 +10.9 53 +24 +30 комфорт 1019.5 996.0
15 16.08 З 2 20 км 6/6
[Cu Sc]
+20.5 +11.4 56 +23 +24 комфорт 1020.0 996.6
18 16.08 штиль 0 20 км 3/1 600 м
[Sc Ci fib]
+14.9 +12.8 87 +15 +15 1021.6 997.7 +21.4
21 16.08 штиль 0 10 км дымка ясно +11.8 +11.0 95 +11 +11 1022.9 998.7
00 17.08 штиль 0 4000 м дымка 3/0
[Ci fib]
+9.9 +9.2 95 +9 +9 1024.1 999.7
03 17.08 штиль 0 8000 м дымка 3/0
[Ci fib]
+9.5 +8.9 96 +9 +9 1025.3 1000.9 +9.0
06 17.08 В 1 20 км 3/0
[Ci fib]
+18.6 +13.1 70 +20 +26 1024.8 1001.1 +9.0
09 17.08 В 1 20 км 8/4 600 м
[Cu hum Ci fib]
+22.1 +11.3 50 +24 +31 комфорт 1024.4 1001.0
12 17.08 В 2 20 км 8/5 600 м
[Cu med, cong Ci fib]
+22.7 +10.6 46 +25 +28 комфорт 1023.8 1000.5
15 17.08 ЮВ 1 20 км 8/3 600 м
[Cu Sc Cs]
+22.1 +9.7 45 +24 +25 комфорт 1022.9 999.5
18 17.08 штиль 0 20 км 4/0
[Ac trans Ci fib]
+15.6 +11.0 74 +15 +15 1022.9 999.0 +23.4
21 17.08 Ю 2 20 км 3/0
[Ci fib]
+15.8 +10.1 69 +16 +16 1023.1 999.2
00 18.08 штиль 0 20 км ясно +13.0 +9.7 80 +13 +13 1023.9 999.8
03 18.08 Ю 1 20 км 3/1 600 м
[Sc Ci fib]
+12.2 +9.2 82 +12 +12 1023.7 999.5 +12.1
06 18.08 ЮВ 1 20 км 4/0
[Ci fib]
+18.3 +10.7 61 +20 +25 1023.1 999.4 +12.1
09 18.08 ЮВ 2 20 км 8/8 600 м
[Cu Sc]
+21.1 +10.9 52 +23 +25 комфорт 1022.2 998.8
15 18.08 ЮВ 2 20 км 8/5 600 м
[Cu Sc Ac trans Ci sp]
+22.4 +12.1 52 +25 +25 комфорт 1020.0 996.7
18 18.08 ЮВ 1 20 км 1/0
[Ci fib]
+17.8 +12.5 71 +19 +19 1020.1 996.5
21 18.08 Ю 2 20 км ясно +16.6 +12.3 76 +17 +17 1019.9 996.2
00 19.08 Ю 2 20 км 4/0
[Ac trans Ci fib]
+15.8 +12.5 81 +16 +16 1019.1 995.3
03 19.08 Ю 3 20 км 9/6 600 м
[Cb cap Ac und Ci fib]
+16.0 +12.8 81 +16 +16 1017.9 994.2 +15.5
06 19.08 Ю 2 20 км 9/5 600 м
[Cb cap Ac trans Ci sp]
+19.2 +14.4 74 +21 +23 комфорт 1016.7 993.3 +15.5
09 19.08 Ю 3 20 км {ливн. осадки} 9/8 600 м
[Cb cap As trans]
+18.9 +15.7 82 +20 +22 1015.5 992.1
12 19.08 Ю 3 20 км {ливн. осадки} 9/9 600 м
[Cb cap Ci sp]
+21.8 +16.4 71 +26 +26 душно 1013.8 990.7
15 19.08 Ю 1 20 км {гроза, ливн. осадки} 9/4 600 м
[Cb cap Ci sp]
+19.7 +16.3 81 +23 +24 комфорт 1013.5 990.2 1
18 19.08 ЮЗ 1 20 км {гроза, ливн. осадки} 9/5 600 м
[Sc Ac trans Ci sp]
+17.5 +14.6 83 +19 +19 1014.1 990.6 +22.5 1
21 19.08 ЮЗ 2 20 км 9/9 600 м
[Sc]
+16.7 +13.0 79 +17 +17 1014.0 990.4
00 20.08 Ю 1 20 км 9/8 600 м
[Sc Ac und]
+15.6 +13.1 85 +16 +16 1013.9 990.2
03 20.08 ЮЗ 1 20 км 9/8 600 м
[Sc Ac As]
+14.9 +13.4 91 +15 +15 1014.0 990.3 +14.7
06 20.08 Ю 2 20 км 9/8 600 м
[Sc Ac As]
+16.5 +13.9 85 +17 +17 1013.4 989.8 +14.7
09 20.08 Ю 2 20 км 10/8 600 м
[Cb cap Ac As]
+17.4 +13.9 80 +18 +18 1013.2 989.7

 

Местоположение метеостанции Валдай (Новгородская область, Россия): широта 57.99 долгота 33.25 высота над уровнем моря 195 м.

В архиве по умолчанию представлена погода в Валдае за последнюю неделю. Архивные данные за месяц целиком и за предыдущие месяцы, начиная с января 2011 года, Вы можете получить, выбрав интересующий диапазон дат из раскрывающегося списка и нажав кнопку "Ввод!".


*Определитесь, кто Вы:
робот инопланетянин человек

Внимание! Время в таблицах - всемирное. Для получения местного времени необходимо прибавить поправку, которая в Валдае равна 3 ч.

Смотрите также архив погоды в соседних городах и на ближайших метеорологических станциях:

Погода в Окуловке (Новгородская область, Россия) (42 км)
Погода в Бологом (Тверская область, Россия) (48 км)
Погода в Крестцах (Новгородская область, Россия) (53 км)
Погода в Демянске (Новгородская область, Россия) (60 км)
Погода в Боровичах (Новгородская область, Россия) (61 км)
Погода в Вышнем Волочке (Тверская область, Россия) (93 км)
Погода в Осташкове (Тверская область, Россия) (98 км)
Погода в Удомле (Тверская область, Россия) (105 км)
Погода в Охонах (Новгородская область, Россия) (110 км)
Погода в Старой Руссе (Новгородская область, Россия) (114 км)

Пояснения к столбцам:

Ветер - указаны скорость ветра в м/с - средняя за 10 мин, порывы в срок и между сроками (в фигурных скобках) и направление, откуда дует ветер: С - северный, СВ - северо-восточный, В - восточный, ЮВ - юго-восточный, Ю - южный, ЮЗ - юго-западный, З - западный, СЗ - северо-западный.
Видимость - горизонтальная дальность видимости в метрах или километрах. При видимости от 1 до 10 км при отсутствии осадков обычно наблюдается дымка, при ухудшении видимости до 1 км и менее - туман. В сухую погоду видимость может ухудшаться дымом, пылью или мглою.
Явления - указаны атмосферные явления, наблюдавшиеся в срок или в последний час перед сроком; фигурными скобками обозначены явления, наблюдавшиеся между сроками (за 1-3 часа до срока); квадратными скобками обозначены град или гололедные отложения с указанием их диаметра в мм.
Облачность - указаны через наклонную черту общая и нижняя облачность в баллах и высота нижней границы облаков в метрах; квадратными скобками обозначены формы облаков: Ci - перистые, Cs - перисто-слоистые, Cc - перисто-кучевые, Ac - высококучевые, As - высокослоистые, Sc - слоисто-кучевые, Ns - слоисто-дождевые, Cu - кучевые, Cb - кучево-дождевые. Подробнее классификацию облаков см. в Атласе облаков (PDF).
T - Температура воздуха - температура, измеренная на высоте 2 м над землей.
Td - Температура точки росы - температура, при понижении до которой содержащийся в воздухе водяной пар достигнет насыщения.
f - Относительная влажность воздуха - влажноcть воздуха, измеренная на высоте 2 м над землей.
Te - Эффективная температура - температура, которую ощущает одетый по сезону человек в тени. Характеристика душности погоды. При расчете учитывается влияние влажности воздуха и скорости ветра на теплоощущения человека.
Tes - Эффективная температура на солнце - температура, которую ощущает человек, с поправкой на солнечный нагрев. Характеристика знойности погоды. Зависит от высоты солнца над горизонтом, облачности и скорости ветра. Ночью, в пасмурную погоду, а также при ветре 12 м/с и более поправка равна нулю.
P - Атмосферное давление - приведенное к уровню моря атмосферное давление.
Po - Атмосферное давление - измеренное на уровне метеостанции атмосферное давление.
Tmin - Минимальная температура - минимум температуры воздуха на высоте 2 м над землей.
Tmax - Максимальная температура - максимум температуры воздуха на высоте 2 м над землей.
R - Количество осадков - Количество выпавших осадков за период времени, мм. При наведении курсора мыши на число - период времени, за который выпало указанное количество осадков.
R24 - Количество осадков - Количество выпавших осадков за 24 часа, мм.
S - Снежный покров - Высота снежного покрова, см. При наведении курсора мыши на число - состояние снежного покрова и степень покрытия местности в баллах.